THOR ABLESTAR DEB, 5746

Orbit data source: Space-Track

THOR ABLESTAR DEB, 5746 is space debris in LEO originally from a launch on Thu, 29 Jun 1961 UTC launched from the Air Force Eastern Test Range (AFETR). Debris objects in space refer to the collection of defunct objects orbiting the Earth. Examples of debris include non-operational satellites, rocket bodies, and fragments generated from explosions, collisions, or faulty payload assembly.

Loading next visibility...
Identifier
5746, 1961-015JV
Orbit
LEO
Country
Flag of USUS
Related business
Manufacturer
Unknown
Mission
Spacecraft
Bus & Motor
Unknown
Mass
Unknown
Launch date (UTC)
1961-06-29 (64 years ago)
Launch vehicle
Unknown
Launch site
Air Force Eastern Test Range (AFETR)
Object type
Payload
Rocket body
Debris
Shape & HBR
Unknown shape, 0.1 m
Radar Cross Section
Small (<0.1 m²)

Expand to show TLE details & history
Last TLE update: 15 hours ago

TLE from 15 hours ago
0 THOR ABLESTAR DEB
1 05746U 61015JV  25349.95555771  .00002087  00000-0  10447-2 0  9997
2 05746  66.3052 293.4792 0039306 160.2066 200.0559 14.18328059256335
Epoch: 2025-12-15T22:56Z
TLE epoch observation values (Epoch: 2025-12-15T22:56:00.186Z)
Latitude
Longitude
-135.36827°
Altitude
859.711 km
Speed
7.409 km/s
True Right ascension
19h 33m 55s
True Declination
0° 00' 00"
Sunlit
Object was in daylight at epoch
Visualization orbit readout
Latitude
Unknown
Longitude
Unknown
Altitude
Unknown
Speed
Unknown
Apparent Right ascension
Unknown
Apparent Declination
Unknown
Sunlit
N/A
Visualization observer readout
Local Sidereal Time
12:37:54
Azimuth
Unknown
Elevation
Unknown
Doppler factor
Unknown
Orbital elements
Apogee altitude
857.773 km
Perigee altitude
801.113 km
Semi-major axis
7,207.58 km
Eccentricity
0.00393
Inclination
66.3052°
RAAN
293.4792°
Arg. of periapsis
160.2066°
True anomaly
199.90215°
Mean anomaly
200.0559°
Eccentric anomaly
199.97895°
Mean motion
3.54698 °/min
Orbital period
101.49 mins
BSTAR
0.0010447
Loading maneuver chart data...
Computing Atmospheric mass density...

Documentation

Showing up to 5 results
|